FW4533 Waynesville GA US current weather conditions

sailwx.info

Wind from 307

Air temperature 9.4° C
Dewpoint 7.6° C

Last reported at 2019-Dec-08 02:08 UTC.
Time now 2019-Dec-08 02:40 UTC

Location: N 31°14' W 081°48'.
View on Google Maps.

See reports from other nearby stations

  
Tides and Currents Weather Stations Pressure Air Temp Water Temp Dewpoint Dewpoint Depression Visibility Wind Speed Wind Dir Waves Ship Positions
date/time (UTC)wind fromknots sea level pressurealtimeterstation pressurevisibilityair tempwater tempwave heightnotes
2019-Dec-08 02:08 307 9.4
2019-Dec-08 02:03 334 9.4
2019-Dec-08 01:53 248 9.4
2019-Dec-08 01:48 248 10.0
2019-Dec-08 01:43 296 10.0
2019-Dec-08 01:38 315 10.0
2019-Dec-08 01:33 315 10.0
2019-Dec-08 01:28 315 10.6
2019-Dec-08 01:23 315 10.6
2019-Dec-08 01:18 315 10.6
2019-Dec-08 01:13 315 11.1
2019-Dec-08 01:08 248 11.1
2019-Dec-08 01:03 270 11.7
2019-Dec-08 00:58 029 11.7
2019-Dec-08 00:53 292 11.7
2019-Dec-08 00:48 12.2
2019-Dec-08 00:43 248 12.2
2019-Dec-08 00:38 172 12.2
2019-Dec-08 00:33 022 12.8
2019-Dec-08 00:28 281 0 gusting 2 12.8
2019-Dec-08 00:23 085 12.8
2019-Dec-08 00:18 009 12.8
2019-Dec-08 00:13 112 13.3
2019-Dec-08 00:08 188 13.3
2019-Dec-08 00:03 294 13.3
2019-Dec-07 23:58 336 13.9
2019-Dec-07 23:53 028 0 gusting 1 13.9
2019-Dec-07 23:48 081 0 gusting 2 13.9
2019-Dec-07 23:43 099 13.9
2019-Dec-07 23:38 237 13.9
2019-Dec-07 23:33 270 13.9
2019-Dec-07 23:28 130 13.9
2019-Dec-07 23:23 135 13.9
2019-Dec-07 23:18 035 14.4
2019-Dec-07 23:13 138 14.4
2019-Dec-07 23:08 292 14.4
2019-Dec-07 23:03 261 15.0
2019-Dec-07 22:58 090 1 gusting 1 15.0
2019-Dec-07 22:53 069 0 gusting 2 15.0
2019-Dec-07 22:48 075 2 gusting 2 15.0
2019-Dec-07 22:43 105 1 gusting 2 15.6
2019-Dec-07 22:38 090 1 gusting 2 15.6
2019-Dec-07 22:33 112 1 gusting 2 15.6
2019-Dec-07 22:28 016 1 gusting 2 15.6
2019-Dec-07 22:23 093 2 gusting 4 15.6
2019-Dec-07 22:18 098 1 gusting 2 16.1
2019-Dec-07 22:13 077 2 gusting 4 16.1
2019-Dec-07 22:08 097 3 gusting 6 16.1
2019-Dec-07 22:03 103 3 gusting 5 16.1
2019-Dec-07 21:58 083 2 gusting 5 16.7
2019-Dec-07 21:53 099 2 gusting 4 16.7
2019-Dec-07 21:48 100 2 gusting 4 16.7
2019-Dec-07 21:43 101 2 gusting 4 17.2
2019-Dec-07 21:38 082 3 gusting 5 17.2
2019-Dec-07 21:33 090 3 gusting 5 17.2
2019-Dec-07 21:28 100 2 gusting 4 17.2
2019-Dec-07 21:23 112 2 gusting 4 17.2
2019-Dec-07 21:18 112 2 gusting 5 17.2
2019-Dec-07 21:13 101 2 gusting 5 17.2
2019-Dec-07 21:08 047 1 gusting 4 17.8
2019-Dec-07 21:03 100 1 gusting 4 17.8
2019-Dec-07 20:58 081 2 gusting 5 17.8
2019-Dec-07 20:53 096 4 gusting 5 18.3
2019-Dec-07 20:48 100 4 gusting 5 18.3
2019-Dec-07 20:43 112 4 gusting 5 18.3
2019-Dec-07 20:38 102 3 gusting 6 18.3
2019-Dec-07 20:33 072 4 gusting 5 18.9
2019-Dec-07 20:28 112 5 gusting 6 18.9
2019-Dec-07 20:23 102 4 gusting 6 18.9
2019-Dec-07 20:18 100 2 gusting 5 18.9
2019-Dec-07 20:13 100 2 gusting 5 19.4
2019-Dec-07 20:08 103 4 gusting 5 19.4
2019-Dec-07 20:03 099 4 gusting 5 19.4
2019-Dec-07 19:58 099 2 gusting 4 19.4
2019-Dec-07 19:53 092 4 gusting 6 20.0
2019-Dec-07 19:48 086 5 gusting 6 19.4
2019-Dec-07 19:43 095 4 gusting 6 20.0
2019-Dec-07 19:38 046 3 gusting 5 20.6
2019-Dec-07 19:33 112 4 gusting 7 20.6
2019-Dec-07 19:28 112 5 gusting 6 20.0
2019-Dec-07 19:23 070 4 gusting 5 20.0
2019-Dec-07 19:18 135 4 gusting 6 20.6
2019-Dec-07 19:13 098 3 gusting 5 20.6
2019-Dec-07 19:08 112 3 gusting 6 21.1
2019-Dec-07 19:03 073 4 gusting 5 21.7
2019-Dec-07 18:58 097 4 gusting 5 21.1
2019-Dec-07 18:53 140 4 gusting 5 20.6
2019-Dec-07 18:48 103 4 gusting 5 20.6
2019-Dec-07 18:43 112 4 gusting 6 21.1
2019-Dec-07 18:38 098 2 gusting 5 21.1
2019-Dec-07 18:33 088 2 gusting 6 21.1
2019-Dec-07 18:28 095 4 gusting 5 21.1
2019-Dec-07 18:23 109 2 gusting 5 21.1
2019-Dec-07 18:18 077 4 gusting 5 21.1
2019-Dec-07 18:13 077 3 gusting 5 21.1
2019-Dec-07 18:08 088 4 gusting 6 21.1
2019-Dec-07 18:03 103 4 gusting 5 21.7
2019-Dec-07 17:58 101 2 gusting 4 21.7
2019-Dec-07 17:53 327 1 gusting 4 21.7
2019-Dec-07 17:48 068 3 gusting 6 21.7
2019-Dec-07 17:43 066 21.1
2019-Dec-07 17:38 112 4 gusting 5 20.6
2019-Dec-07 17:33 131 4 gusting 5 20.6
2019-Dec-07 17:28 135 2 gusting 4 20.6
2019-Dec-07 17:23 202 1 gusting 4 20.6
2019-Dec-07 17:18 103 2 gusting 4 20.6
2019-Dec-07 17:13 173 1 gusting 4 20.6
2019-Dec-07 17:08 102 1 gusting 4 20.6
2019-Dec-07 17:03 112 1 gusting 4 20.6
2019-Dec-07 16:58 100 4 gusting 5 20.6
2019-Dec-07 16:53 126 2 gusting 2 20.6
2019-Dec-07 16:48 081 4 gusting 4 20.0
2019-Dec-07 16:43 102 1 gusting 2 19.4
2019-Dec-07 16:38 124 2 gusting 4 20.0
2019-Dec-07 16:33 042 1 gusting 2 19.4
2019-Dec-07 16:28 237 0 gusting 1 19.4
2019-Dec-07 16:23 121 1 gusting 2 18.9
2019-Dec-07 16:18 087 1 gusting 2 18.9
2019-Dec-07 16:13 112 2 gusting 4 18.3
2019-Dec-07 16:08 064 1 gusting 4 18.9
2019-Dec-07 16:03 112 2 gusting 4 18.3
2019-Dec-07 15:58 092 3 gusting 5 18.3
2019-Dec-07 15:53 087 3 gusting 5 18.9
2019-Dec-07 15:48 099 2 gusting 5 18.9
2019-Dec-07 15:43 083 2 gusting 4 18.3
2019-Dec-07 15:38 069 4 gusting 5 18.3
2019-Dec-07 15:33 112 3 gusting 4 17.8
2019-Dec-07 15:28 086 3 gusting 4 17.8
2019-Dec-07 15:23 102 2 gusting 5 17.8
2019-Dec-07 15:18 099 2 gusting 5 17.2
2019-Dec-07 15:13 080 2 gusting 5 17.2
2019-Dec-07 15:08 102 2 gusting 5 16.7
2019-Dec-07 15:03 087 2 gusting 4 16.7
2019-Dec-07 14:58 104 2 gusting 4 16.1
2019-Dec-07 14:53 090 4 gusting 5 16.1
2019-Dec-07 14:48 125 2 gusting 4 15.6
2019-Dec-07 14:43 112 2 gusting 4 15.6
2019-Dec-07 14:38 096 4 gusting 5 15.6
2019-Dec-07 14:33 090 2 gusting 4 15.6
2019-Dec-07 14:28 112 3 gusting 5 15.0
2019-Dec-07 14:23 054 2 gusting 2 14.4
2019-Dec-07 14:18 112 1 gusting 2 13.9
2019-Dec-07 14:13 112 0 gusting 1 13.3
2019-Dec-07 14:08 089 0 gusting 1 12.8
2019-Dec-07 14:03 112 0 gusting 1 12.2
2019-Dec-07 13:58 117 11.7
2019-Dec-07 13:53 162 11.7
2019-Dec-07 13:48 248 11.1
2019-Dec-07 13:43 292 11.1
2019-Dec-07 13:38 249 11.1
2019-Dec-07 13:33 289 10.6
2019-Dec-07 13:28 248 10.6
2019-Dec-07 13:23 040 10.6
2019-Dec-07 13:18 105 10.6
2019-Dec-07 13:13 265 10.0
2019-Dec-07 13:08 246 10.0
2019-Dec-07 13:03 272 10.0
2019-Dec-07 12:58 265 10.0
2019-Dec-07 12:53 248 10.0
2019-Dec-07 12:48 338 10.0
2019-Dec-07 12:43 090 10.0
2019-Dec-07 12:38 295 10.0
2019-Dec-07 12:33 270 9.4
2019-Dec-07 12:28 225 9.4
2019-Dec-07 12:23 292 9.4
2019-Dec-07 12:18 112 9.4
2019-Dec-07 12:13 165 9.4
2019-Dec-07 12:08 294 9.4
2019-Dec-07 12:03 022 9.4
2019-Dec-07 11:58 022 9.4
2019-Dec-07 11:53 022 9.4
2019-Dec-07 11:48 022 9.4
2019-Dec-07 11:43 022 9.4
2019-Dec-07 11:38 270 9.4
2019-Dec-07 11:33 252 9.4
2019-Dec-07 11:28 202 8.9
2019-Dec-07 11:23 109 8.9
2019-Dec-07 11:18 048 8.9
2019-Dec-07 11:13 270 8.9
2019-Dec-07 11:08 289 8.9
2019-Dec-07 11:03 180 8.9
2019-Dec-07 10:58 290 8.3
2019-Dec-07 10:53 272 8.3
2019-Dec-07 10:48 224 8.3
2019-Dec-07 10:43 272 8.3
2019-Dec-07 10:38 270 8.3
2019-Dec-07 10:33 114 8.3
2019-Dec-07 10:28 273 8.3
2019-Dec-07 10:23 110 7.8
2019-Dec-07 10:18 093 0 gusting 0 7.8
2019-Dec-07 10:13 112 7.8
2019-Dec-07 10:08 091 7.8
2019-Dec-07 10:03 165 7.8
2019-Dec-07 09:58 112 7.2
2019-Dec-07 09:53 267 7.2
2019-Dec-07 09:48 231 7.2
2019-Dec-07 09:43 048 7.2
2019-Dec-07 09:38 292 7.2
2019-Dec-07 09:33 011 7.2
2019-Dec-07 09:28 159 7.2
2019-Dec-07 09:23 222 7.2
2019-Dec-07 09:18 157 6.7
2019-Dec-07 09:13 270 6.7
2019-Dec-07 09:08 272 6.7
2019-Dec-07 09:03 194 6.7
2019-Dec-07 08:58 108 6.1
2019-Dec-07 08:53 047 6.1
2019-Dec-07 08:48 314 6.1
2019-Dec-07 08:43 242 5.6
2019-Dec-07 08:38 202 5.6
2019-Dec-07 08:33 201 5.6
2019-Dec-07 08:28 202 5.6
2019-Dec-07 08:23 202 5.6
2019-Dec-07 08:18 250 5.6
2019-Dec-07 08:13 289 5.6
2019-Dec-07 08:08 045 5.6
2019-Dec-07 08:03 112 5.6
2019-Dec-07 07:58 204 5.6
2019-Dec-07 07:53 225 5.6
2019-Dec-07 07:48 267 5.6
2019-Dec-07 07:43 161 5.6
2019-Dec-07 07:38 161 5.6
2019-Dec-07 07:33 270 5.6
2019-Dec-07 07:28 203 5.6
2019-Dec-07 07:23 112 5.6
2019-Dec-07 07:18 159 5.6
2019-Dec-07 07:13 271 5.6
2019-Dec-07 07:08 289 5.6
2019-Dec-07 07:03 248 5.6
2019-Dec-07 06:58 202 6.1
2019-Dec-07 06:53 180 6.1
2019-Dec-07 06:48 180 6.1
2019-Dec-07 06:43 180 6.1
2019-Dec-07 06:38 222 6.1
2019-Dec-07 06:33 225 6.1
2019-Dec-07 06:28 225 6.1
2019-Dec-07 06:23 225 6.1
2019-Dec-07 06:18 225 6.1
2019-Dec-07 06:13 246 6.1
2019-Dec-07 06:08 225 6.1
2019-Dec-07 06:03 270 6.1
2019-Dec-07 05:58 270 6.1
2019-Dec-07 05:53 225 6.1
2019-Dec-07 05:48 245 6.1
2019-Dec-07 05:43 158 6.7
2019-Dec-07 05:38 161 6.7
2019-Dec-07 05:33 180 6.7
2019-Dec-07 05:28 177 6.7
2019-Dec-07 05:23 162 6.7
2019-Dec-07 05:18 112 6.7
2019-Dec-07 05:13 112 6.7
2019-Dec-07 05:08 112 6.7
2019-Dec-07 05:03 112 6.7
2019-Dec-07 04:58 112 6.7
2019-Dec-07 04:53 112 6.7
2019-Dec-07 04:48 112 6.7
2019-Dec-07 04:43 112 7.2
2019-Dec-07 04:38 112 7.2
2019-Dec-07 04:33 180 7.2
2019-Dec-07 04:28 247 7.2
2019-Dec-07 04:23 292 7.8
2019-Dec-07 04:18 315 7.8
2019-Dec-07 04:13 315 7.8
2019-Dec-07 04:08 295 7.8
2019-Dec-07 04:03 290 7.8
2019-Dec-07 03:58 332 7.8
2019-Dec-07 03:53 174 7.8
2019-Dec-07 03:48 106 8.3
2019-Dec-07 03:43 067 8.3
2019-Dec-07 03:38 202 8.3
2019-Dec-07 03:33 268 8.3
2019-Dec-07 03:28 289 8.3
2019-Dec-07 03:23 8.3
2019-Dec-07 03:18 003 8.9
2019-Dec-07 03:13 022 8.9
2019-Dec-07 03:08 045 8.9
2019-Dec-07 03:03 045 9.4
2019-Dec-07 02:58 040 9.4
2019-Dec-07 02:53 109 10.0
2019-Dec-07 02:48 112 10.0
2019-Dec-07 02:43 341 10.0
2019-Dec-07 02:38 289 10.6
2019-Dec-07 02:33 270 10.6
2019-Dec-07 02:28 271 10.6
2019-Dec-07 02:23 312 10.6
2019-Dec-07 02:18 043 10.6
2019-Dec-07 02:13 045 10.6
2019-Dec-07 02:08 178 10.6
2019-Dec-07 02:03 116 10.6
2019-Dec-07 01:58 068 10.6
2019-Dec-07 01:53 089 11.1
2019-Dec-07 01:48 020 11.1
2019-Dec-07 01:43 112 11.1
2019-Dec-07 01:38 336 10.6
2019-Dec-07 01:33 228 10.6
2019-Dec-07 01:28 315 10.6
2019-Dec-07 01:23 114 10.6
2019-Dec-07 01:18 313 10.6
2019-Dec-07 01:13 054 0 gusting 0 10.6
2019-Dec-07 01:08 068 10.6
2019-Dec-07 01:03 112 10.6
2019-Dec-07 00:58 100 10.6
2019-Dec-07 00:53 158 10.6
2019-Dec-07 00:48 155 10.6
2019-Dec-07 00:43 202 10.6
2019-Dec-07 00:38 270 10.6
2019-Dec-07 00:33 246 10.6
2019-Dec-07 00:28 271 10.6
2019-Dec-07 00:23 292 10.6
2019-Dec-07 00:18 225 10.6
2019-Dec-07 00:13 227 10.6
2019-Dec-07 00:08 292 10.6
2019-Dec-07 00:03 225 10.6
2019-Dec-06 23:58 225 11.1
2019-Dec-06 23:53 227 11.1
2019-Dec-06 23:48 253 11.1
2019-Dec-06 23:43 270 11.1
2019-Dec-06 23:38 248 11.1
2019-Dec-06 23:33 268 11.7
2019-Dec-06 23:28 205 11.7
2019-Dec-06 23:23 288 11.7
2019-Dec-06 23:18 273 12.2
2019-Dec-06 23:13 180 12.2
2019-Dec-06 23:08 180 12.2
2019-Dec-06 23:03 270 12.8
2019-Dec-06 22:58 251 12.8
2019-Dec-06 22:53 002 12.8
2019-Dec-06 22:48 158 13.3
2019-Dec-06 22:43 225 13.9
2019-Dec-06 22:38 253 13.9
2019-Dec-06 22:33 270 14.4
2019-Dec-06 22:28 270 14.4
2019-Dec-06 22:23 268 15.0
2019-Dec-06 22:18 267 15.6
2019-Dec-06 22:13 268 16.1
2019-Dec-06 22:08 202 16.7
2019-Dec-06 22:03 270 17.2
2019-Dec-06 21:58 270 17.8
2019-Dec-06 21:53 270 18.3
2019-Dec-06 21:48 292 18.9
2019-Dec-06 21:43 298 19.4
2019-Dec-06 21:38 292 19.4
2019-Dec-06 21:33 340 20.0
2019-Dec-06 21:28 292 21.1
2019-Dec-06 21:23 266 20.6
2019-Dec-06 21:18 254 20.0
2019-Dec-06 21:13 163 20.6
2019-Dec-06 21:08 204 19.4
2019-Dec-06 21:03 218 19.4
2019-Dec-06 20:58 322 19.4
2019-Dec-06 20:53 261 21.1
2019-Dec-06 20:48 278 21.1
2019-Dec-06 20:43 045 21.7
2019-Dec-06 20:38 258 1 gusting 2 21.7
2019-Dec-06 20:33 230 0 gusting 1 21.1
2019-Dec-06 20:28 346 19.4
2019-Dec-06 20:23 20.6
2019-Dec-06 20:18 022 20.6
2019-Dec-06 20:13 217 20.6
2019-Dec-06 20:08 282 20.0
2019-Dec-06 20:03 275 19.4
2019-Dec-06 19:58 055 19.4
2019-Dec-06 19:53 068 20.0
2019-Dec-06 19:48 019 0 gusting 1 20.6
2019-Dec-06 19:43 272 20.6
2019-Dec-06 19:38 064 21.1
2019-Dec-06 19:33 137 21.1
2019-Dec-06 19:28 284 2 gusting 2 21.1
2019-Dec-06 19:23 246 1 gusting 5 20.6
2019-Dec-06 19:18 225 2 gusting 5 21.1
2019-Dec-06 19:13 261 3 gusting 5 21.1
2019-Dec-06 19:08 232 1 gusting 4 21.1
2019-Dec-06 19:03 261 4 gusting 4 21.1
2019-Dec-06 18:58 292 4 gusting 5 21.7
2019-Dec-06 18:53 214 1 gusting 4 21.1
2019-Dec-06 18:48 202 2 gusting 5 21.1
2019-Dec-06 18:43 270 2 gusting 5 21.1
2019-Dec-06 18:38 238 2 gusting 4 20.6
2019-Dec-06 18:33 112 0 gusting 4 20.6
2019-Dec-06 18:28 245 0 gusting 5 20.6
2019-Dec-06 18:23 281 0 gusting 5 20.6
2019-Dec-06 18:18 273 2 gusting 5 21.1
2019-Dec-06 18:13 292 2 gusting 5 21.1
2019-Dec-06 18:08 327 2 gusting 4 21.7
2019-Dec-06 18:03 260 2 gusting 5 21.7
2019-Dec-06 17:58 291 2 gusting 5 21.1
2019-Dec-06 17:53 238 2 gusting 6 21.7
2019-Dec-06 17:48 226 1 gusting 4 21.7
2019-Dec-06 17:43 265 1 gusting 4 21.7
2019-Dec-06 17:38 202 2 gusting 5 21.1
2019-Dec-06 17:33 270 2 gusting 5 20.6
2019-Dec-06 17:28 136 3 gusting 5 20.0
2019-Dec-06 17:23 244 1 gusting 4 20.6
2019-Dec-06 17:18 032 2 gusting 5 20.6
2019-Dec-06 17:13 232 1 gusting 2 21.1
2019-Dec-06 17:08 258 2 gusting 5 21.1
2019-Dec-06 17:03 166 20.0
2019-Dec-06 16:58 196 1 gusting 2 20.0
2019-Dec-06 16:53 278 1 gusting 2 20.0
2019-Dec-06 16:48 056 19.4
2019-Dec-06 16:43 212 1 gusting 4 19.4
2019-Dec-06 16:38 219 1 gusting 2 20.0
2019-Dec-06 16:33 236 1 gusting 4 20.0
2019-Dec-06 16:28 169 20.6
2019-Dec-06 16:23 191 1 gusting 4 19.4
2019-Dec-06 16:18 225 2 gusting 5 19.4
2019-Dec-06 16:13 251 2 gusting 5 19.4
2019-Dec-06 16:08 135 1 gusting 2 19.4
2019-Dec-06 16:03 180 0 gusting 4 18.9
2019-Dec-06 15:58 191 1 gusting 1 18.3
2019-Dec-06 15:53 225 17.8
2019-Dec-06 15:48 330 17.8
2019-Dec-06 15:43 254 1 gusting 4 17.8
2019-Dec-06 15:38 236 17.2
2019-Dec-06 15:33 193 16.7
2019-Dec-06 15:28 022 1 gusting 2 16.1
2019-Dec-06 15:23 254 0 gusting 1 16.1
2019-Dec-06 15:18 319 15.6
2019-Dec-06 15:13 068 15.0
2019-Dec-06 15:08 002 15.0
2019-Dec-06 15:03 179 15.0
2019-Dec-06 14:58 022 14.4
2019-Dec-06 14:53 225 2 gusting 2 13.9
2019-Dec-06 14:48 230 0 gusting 1 13.9
2019-Dec-06 14:43 233 0 gusting 0 13.3
2019-Dec-06 14:38 212 12.2
2019-Dec-06 14:33 101 11.7
2019-Dec-06 14:28 295 11.1
2019-Dec-06 14:23 326 11.1
2019-Dec-06 14:18 11.1
2019-Dec-06 14:13 259 10.6
2019-Dec-06 14:08 146 10.0
2019-Dec-06 14:03 293 8.3
2019-Dec-06 13:58 180 7.8
2019-Dec-06 13:53 248 7.2
2019-Dec-06 13:48 021 6.7
2019-Dec-06 13:43 327 6.7
2019-Dec-06 13:38 283 6.1
2019-Dec-06 13:33 282 6.1
2019-Dec-06 13:28 237 5.6
2019-Dec-06 13:23 212 5.0
2019-Dec-06 13:18 281 5.0
2019-Dec-06 13:13 248 4.4
2019-Dec-06 13:08 259 4.4
2019-Dec-06 13:03 259 3.9
2019-Dec-06 12:58 248 3.9
2019-Dec-06 12:53 260 3.3
2019-Dec-06 12:48 248 2.8
2019-Dec-06 12:43 270 2.8
2019-Dec-06 12:38 270 2.2
2019-Dec-06 12:33 270 2.2
2019-Dec-06 12:28 021 1.7
2019-Dec-06 12:23 225 1.7
2019-Dec-06 12:18 270 1.7
2019-Dec-06 12:13 248 1.7
2019-Dec-06 12:08 292 1.7
2019-Dec-06 12:03 270 1.7
2019-Dec-06 11:58 280 1.7
2019-Dec-06 11:53 011 1.7
2019-Dec-06 11:48 280 1.7
2019-Dec-06 11:43 101 1.7
2019-Dec-06 11:38 237 1.7
2019-Dec-06 11:33 248 1.7
2019-Dec-06 11:28 248 1.7
2019-Dec-06 11:23 299 2.2
2019-Dec-06 11:18 236 2.2
2019-Dec-06 11:13 248 2.2
2019-Dec-06 11:08 270 2.2
2019-Dec-06 11:03 248 2.2
2019-Dec-06 10:58 248 2.2
2019-Dec-06 10:53 248 2.2
2019-Dec-06 10:48 248 2.2
2019-Dec-06 10:43 248 2.2
2019-Dec-06 10:38 068 2.2
2019-Dec-06 10:33 168 2.2
2019-Dec-06 10:28 225 2.2
2019-Dec-06 10:23 248 2.2
2019-Dec-06 10:18 259 2.2
2019-Dec-06 10:13 270 2.2
2019-Dec-06 10:08 270 2.2
2019-Dec-06 10:03 248 2.2
2019-Dec-06 09:58 248 2.2
2019-Dec-06 09:53 270 2.2
2019-Dec-06 09:48 248 2.2
2019-Dec-06 09:43 270 2.2
2019-Dec-06 09:38 270 2.2
2019-Dec-06 09:33 248 2.2
2019-Dec-06 09:28 270 2.2
2019-Dec-06 09:23 270 2.2
2019-Dec-06 09:18 270 2.2
2019-Dec-06 09:13 292 2.2
2019-Dec-06 09:08 202 2.8
2019-Dec-06 09:03 214 2.8
2019-Dec-06 08:58 258 2.8
2019-Dec-06 08:53 247 2.8
2019-Dec-06 08:48 326 2.8
2019-Dec-06 08:43 259 2.8
2019-Dec-06 08:38 292 2.8
2019-Dec-06 08:33 303 2.8
2019-Dec-06 08:28 236 2.8
2019-Dec-06 08:23 264 2.8
2019-Dec-06 08:18 315 2.8
2019-Dec-06 08:13 334 2.8
2019-Dec-06 08:08 225 2.8
2019-Dec-06 08:03 192 2.8
2019-Dec-06 07:58 191 2.8
2019-Dec-06 07:53 248 2.8
2019-Dec-06 07:48 248 2.8
2019-Dec-06 07:43 270 2.8
2019-Dec-06 07:38 270 2.8
2019-Dec-06 07:33 225 2.8
2019-Dec-06 07:28 225 2.8
2019-Dec-06 07:23 225 2.8
2019-Dec-06 07:18 236 2.8
2019-Dec-06 07:13 270 2.8
2019-Dec-06 07:08 225 2.8
2019-Dec-06 07:03 202 2.8
2019-Dec-06 06:58 225 2.8
2019-Dec-06 06:53 225 2.8
2019-Dec-06 06:48 270 2.8
2019-Dec-06 06:43 237 2.8
2019-Dec-06 06:38 235 2.8
2019-Dec-06 06:33 259 2.8
2019-Dec-06 06:28 225 2.8
2019-Dec-06 06:23 248 2.8
2019-Dec-06 06:18 238 2.8
2019-Dec-06 06:13 225 2.8
2019-Dec-06 06:08 270 2.8
2019-Dec-06 06:03 248 2.8
2019-Dec-06 05:58 238 2.8
2019-Dec-06 05:53 248 2.8
2019-Dec-06 05:48 258 2.8
2019-Dec-06 05:43 270 2.8
2019-Dec-06 05:38 270 2.8
2019-Dec-06 05:33 258 2.8
2019-Dec-06 05:28 270 2.8
2019-Dec-06 05:23 270 2.8
2019-Dec-06 05:18 225 2.8
2019-Dec-06 05:13 225 2.8
2019-Dec-06 05:08 292 2.8
2019-Dec-06 05:03 270 2.8
2019-Dec-06 04:58 248 2.8
2019-Dec-06 04:53 248 2.8
2019-Dec-06 04:48 270 2.8
2019-Dec-06 04:43 248 2.8
2019-Dec-06 04:38 225 2.8
2019-Dec-06 04:33 225 2.8
2019-Dec-06 04:28 225 2.8
2019-Dec-06 04:23 236 2.8
2019-Dec-06 04:18 280 2.8
2019-Dec-06 04:13 259 2.8
2019-Dec-06 04:08 248 2.8
2019-Dec-06 04:03 259 2.8
2019-Dec-06 03:58 248 2.8
2019-Dec-06 03:53 225 3.3
2019-Dec-06 03:48 248 3.3
2019-Dec-06 03:43 248 3.3
2019-Dec-06 03:38 260 3.3
2019-Dec-06 03:33 225 3.3
2019-Dec-06 03:28 248 3.3
2019-Dec-06 03:23 259 3.3
2019-Dec-06 03:18 236 3.3
2019-Dec-06 03:13 237 3.3
2019-Dec-06 03:08 192 3.3
2019-Dec-06 03:03 090 3.3
2019-Dec-06 02:58 180 3.9
2019-Dec-06 02:53 225 3.9
2019-Dec-06 02:48 270 3.9
2019-Dec-06 02:43 180 3.9
2019-Dec-06 02:38 225 3.9
2019-Dec-06 02:33 248 3.9
2019-Dec-06 02:28 213 3.9
2019-Dec-06 02:23 260 3.9
2019-Dec-06 02:18 236 3.9
2019-Dec-06 02:13 248 3.9
2019-Dec-06 02:08 248 4.4
2019-Dec-06 02:03 270 4.4